ORBCOMM FM33 [P]

Last updated on Sat May 13 2023 00:03:02 GMT+0000 (Coordinated Universal Time)

1 25983U 99065D 23132.02436890 .00001590 00000+0 58566-3 0 9996 2 25983 45.0314 34.3350 0007390 171.9083 204.6252 14.36402789225646
UTC large
Height (km)
Speed (km/s)
/
Latitude / Longitude
Inclination (degrees)
Orbital Period (minutes)
Azimuth
Elevation
Range (km)
Doppler Factor

Next 0 passes for location: London (51.5072 / 0.1276)

Sorry there are no passes over London.
ORBCOMM FM33 [P]